WI0K Weather Reports


Display with metric or nautical units.
time (UTC)temp
F
wind
direction
speed
MPH
gust
MPH
rain 1hr
in
rain 24hr
in
rain mn
in
humidity
%
barometer
mb
20260508094701 44 185 0.0 1.0 0.00 0.01 0.30 93 1015.3
20260508094200 44 169 0.0 0.0 0.00 0.01 0.30 92 1015.5
20260508093700 44 221 0.0 1.0 0.00 0.01 0.30 91 1015.6
20260508093159 45 190 0.0 1.0 0.00 0.01 0.30 90 1015.6
20260508092659 45 208 0.0 1.0 0.00 0.01 0.30 90 1015.7
20260508092158 46 188 0.0 1.0 0.00 0.01 0.30 89 1015.7
20260508091657 46 164 0.0 1.0 0.00 0.01 0.30 87 1015.7
20260508091157 47 97 0.0 1.0 0.00 0.01 0.30 86 1015.7
20260508090656 47 84 0.0 0.0 0.00 0.01 0.30 85 1015.8
20260508090155 47 61 0.0 1.0 0.00 0.01 0.30 85 1015.8
20260508085655 48 62 1.0 1.0 0.00 0.01 0.30 84 1015.8
20260508085154 48 58 1.0 2.0 0.00 0.01 0.30 84 1015.9
20260508084654 48 48 1.0 2.0 0.00 0.01 0.30 84 1016.1
20260508084153 48 52 1.0 2.0 0.00 0.01 0.30 83 1016.1
20260508083652 48 48 1.0 2.0 0.00 0.01 0.30 83 1016.2
20260508083151 48 40 1.0 2.0 0.00 0.01 0.30 83 1016.4
20260508082651 48 40 1.0 2.0 0.00 0.01 0.30 83 1016.4
20260508082150 47 43 1.0 1.0 0.00 0.01 0.30 84 1016.5
20260508081649 47 41 1.0 2.0 0.00 0.01 0.30 87 1016.5
20260508081149 46 88 0.0 0.0 0.00 0.01 0.30 90 1016.5
20260508080648 46 53 0.0 1.0 0.00 0.01 0.30 91 1016.5
20260508080147 47 232 0.0 0.0 0.00 0.01 0.30 90 1016.5
20260508075647 47 0 0.0 0.0 0.00 0.01 0.30 89 1016.5
20260508075146 48 0 0.0 0.0 0.00 0.01 0.30 87 1016.5
20260508074645 48 249 0.0 0.0 0.00 0.01 0.30 86 1016.5
20260508074145 47 321 0.0 0.0 0.00 0.01 0.30 86 1016.5
20260508073644 47 231 0.0 1.0 0.00 0.01 0.30 90 1016.5
20260508073143 47 293 0.0 0.0 0.00 0.01 0.30 90 1016.5
20260508072643 47 12 0.0 0.0 0.00 0.01 0.30 88 1016.5
20260508072142 48 0 0.0 0.0 0.00 0.01 0.45 88 1016.4
20260508071641 48 326 0.0 0.0 0.00 0.01 0.45 86 1016.3
20260508071141 48 317 0.0 0.0 0.01 0.01 0.45 85 1016.3
20260508070640 48 240 1.0 2.0 0.01 0.01 0.01 84 829.5
20260508070140 49 234 3.0 4.0 0.01 0.01 0.01 84 829.3
20260508065639 49 263 0.0 0.0 0.01 0.01 0.45 84 1016.1
20260508065138 50 219 0.0 1.0 0.01 0.01 0.45 81 1016.1
20260508064638 50 58 1.0 1.0 0.01 0.01 0.45 79 1016.1
20260508064137 50 54 1.0 1.0 0.01 0.01 0.45 79 1016.1
20260508063636 51 59 1.0 2.0 0.01 0.01 0.45 77 1015.9
20260508063135 51 82 1.0 2.0 0.01 0.01 0.35 76 1015.8
20260508062635 51 82 1.0 1.0 0.01 0.01 0.35 76 1015.6
20260508062134 52 123 1.0 1.0 0.01 0.01 0.34 74 1015.7
20260508061634 52 53 1.0 2.0 0.00 0.00 0.20 71 1016.9
20260508061133 52 337 0.0 1.0 0.00 0.00 0.00 66 1017.6
20260508060632 52 14 0.0 0.0 0.00 0.00 0.00 67 1017.5
20260508060132 52 31 1.0 2.0 0.00 0.00 0.00 66 1017.0
20260508055631 53 42 1.0 1.0 0.00 0.00 0.00 64 1016.4
20260508055130 53 49 1.0 2.0 0.00 0.00 0.00 64 1015.9
20260508054630 53 80 1.0 1.0 0.00 0.00 0.00 63 1015.8
20260508054129 53 68 1.0 1.0 0.00 0.00 0.00 63 1015.7
20260508053628 53 109 1.0 2.0 0.00 0.00 0.00 62 1015.6
20260508053128 53 154 1.0 2.0 0.00 0.00 0.00 62 1015.6
20260508052627 53 125 1.0 1.0 0.00 0.00 0.00 61 1015.6
20260508052127 54 134 1.0 1.0 0.00 0.00 0.00 60 1015.6
20260508051626 53 111 1.0 2.0 0.00 0.00 0.00 61 1015.6
20260508051125 53 100 2.0 3.0 0.00 0.00 0.00 62 1015.6
20260508050625 53 119 1.0 2.0 0.00 0.00 0.00 63 1015.6
20260508050124 53 138 1.0 1.0 0.00 0.00 0.00 63 1015.6
20260508045624 53 127 1.0 2.0 0.00 0.00 0.00 63 1015.6
20260508045123 53 113 1.0 1.0 0.00 0.00 0.00 63 1015.8
20260508044622 54 119 1.0 1.0 0.00 0.00 0.00 62 1015.9
20260508044122 54 74 1.0 1.0 0.00 0.00 0.00 62 1016.3
20260508043621 54 49 2.0 2.0 0.00 0.00 0.00 61 1016.3
20260508043120 54 37 1.0 2.0 0.00 0.00 0.00 62 1016.2
20260508042620 54 90 0.0 1.0 0.00 0.00 0.00 61 1015.9
20260508042119 54 70 1.0 1.0 0.00 0.00 0.00 61 1015.6
20260508041618 54 138 1.0 2.0 0.00 0.00 0.00 60 1015.2
20260508041118 54 103 1.0 2.0 0.00 0.00 0.00 59 1015.1
20260508040617 54 90 1.0 2.0 0.00 0.00 0.00 59 1015.2
20260508040116 55 61 1.0 2.0 0.00 0.00 0.00 58 1015.2
20260508035616 55 96 2.0 3.0 0.00 0.00 0.00 57 1015.2
20260508035115 56 77 2.0 2.0 0.00 0.00 0.00 56 1015.3
20260508034615 56 73 2.0 3.0 0.00 0.00 0.00 55 1015.5
20260508034114 56 59 2.0 3.0 0.00 0.00 0.00 54 1015.5
20260508033613 57 72 2.0 4.0 0.00 0.00 0.00 52 1015.6
20260508033112 58 69 2.0 3.0 0.00 0.00 0.00 49 1015.6
20260508032612 60 65 3.0 4.0 0.00 0.00 0.00 44 1015.3
20260508032111 60 43 2.0 2.0 0.00 0.00 0.00 41 1015.3
20260508031610 60 49 1.0 1.0 0.00 0.00 0.00 40 1015.2
20260508031110 60 64 0.0 0.0 0.00 0.00 0.00 40 1015.1
20260508030609 60 146 0.0 1.0 0.00 0.00 0.00 41 1015.1
20260508030108 60 71 0.0 0.0 0.00 0.00 0.00 40 1015.0
20260508025608 60 83 0.0 0.0 0.00 0.00 0.00 39 1014.9
20260508025107 59 53 0.0 0.0 0.00 0.00 0.00 41 1014.8
20260508024606 59 281 0.0 0.0 0.00 0.00 0.00 41 1014.8
20260508024106 60 269 0.0 0.0 0.00 0.00 0.00 40 1014.8
20260508023605 60 294 0.0 0.0 0.00 0.00 0.00 40 1014.6
20260508023104 60 265 0.0 0.0 0.00 0.00 0.00 40 1014.6
20260508022604 61 257 0.0 1.0 0.00 0.00 0.00 40 1014.5
20260508022103 61 265 1.0 1.0 0.00 0.00 0.00 38 1014.5
20260508021602 62 261 1.0 1.0 0.00 0.00 0.00 39 1014.6
20260508021101 63 251 3.0 5.0 0.00 0.00 0.00 34 1014.6
20260508020601 62 36 2.0 3.0 0.00 0.00 0.00 32 1014.4
20260508020100 62 38 1.0 3.0 0.00 0.00 0.00 34 1014.4
20260508015600 62 37 3.0 3.0 0.00 0.00 0.00 34 1014.3
20260508015059 63 33 2.0 3.0 0.00 0.00 0.00 33 1014.2
20260508014558 63 49 2.0 4.0 0.00 0.00 0.00 33 1014.1
20260508014058 63 48 2.0 4.0 0.00 0.00 0.00 35 1013.8
20260508013557 64 50 2.0 3.0 0.00 0.00 0.00 35 1013.8
20260508013056 64 50 2.0 3.0 0.00 0.00 0.00 33 1013.8
20260508012556 65 47 2.0 3.0 0.00 0.00 0.00 30 1013.8
20260508012055 65 46 2.0 3.0 0.00 0.00 0.00 28 1013.7
20260508011554 66 78 2.0 3.0 0.00 0.00 0.00 29 1013.5
20260508011054 66 39 1.0 2.0 0.00 0.00 0.00 27 1013.3
20260508010553 66 33 1.0 2.0 0.00 0.00 0.00 26 1013.3
20260508010052 66 30 0.0 1.0 0.00 0.00 0.00 25 1013.2
20260508005552 66 12 0.0 1.0 0.00 0.00 0.00 25 1013.1
20260508005051 66 304 0.0 1.0 0.00 0.00 0.00 27 1013.2
20260508004550 66 290 0.0 1.0 0.00 0.00 0.00 26 1013.1
20260508004050 66 302 0.0 1.0 0.00 0.00 0.00 25 1013.1
20260508003549 66 312 0.0 0.0 0.00 0.00 0.00 25 1013.1
20260508003048 67 286 1.0 1.0 0.00 0.00 0.00 25 1013.1
20260508002548 67 296 0.0 1.0 0.00 0.00 0.00 25 1013.1
20260508002047 67 310 0.0 0.0 0.00 0.00 0.00 26 1013.1
20260508001547 67 271 1.0 1.0 0.00 0.00 0.00 25 1013.0
20260508001046 67 285 1.0 1.0 0.00 0.00 0.00 24 826.8
20260508000545 68 342 0.0 1.0 0.00 0.00 0.00 24 1013.0
20260508000045 67 291 0.0 0.0 0.00 0.00 0.00 25 1013.1
20260507235544 67 13 0.0 1.0 0.00 0.00 0.00 25 1013.1
20260507235043 67 297 0.0 1.0 0.00 0.00 0.00 25 1013.1
20260507234543 67 300 0.0 1.0 0.00 0.00 0.00 24 1013.0
20260507234042 68 285 0.0 1.0 0.00 0.00 0.00 25 1013.0
20260507233541 68 258 0.0 1.0 0.00 0.00 0.00 25 1013.1
20260507233041 68 316 0.0 1.0 0.00 0.00 0.00 25 1013.1
20260507232540 68 304 0.0 1.0 0.00 0.00 0.00 25 1013.2
20260507232039 68 12 1.0 2.0 0.00 0.00 0.00 26 1013.2
20260507231538 68 271 1.0 1.0 0.00 0.00 0.00 26 1013.2
20260507231038 69 270 1.0 1.0 0.00 0.00 0.00 25 1013.2
20260507230537 70 314 0.0 1.0 0.00 0.00 0.00 24 1013.3
20260507230037 70 291 1.0 1.0 0.00 0.00 0.00 24 1013.3
20260507225536 69 342 0.0 1.0 0.00 0.00 0.00 24 1013.3
20260507225035 69 29 1.0 4.0 0.00 0.00 0.00 24 1013.2
20260507224535 69 279 1.0 1.0 0.00 0.00 0.00 24 1013.3
20260507224034 68 293 0.0 1.0 0.00 0.00 0.00 25 1013.3
20260507223533 68 330 0.0 1.0 0.00 0.00 0.00 25 1013.3
20260507223033 69 271 1.0 2.0 0.00 0.00 0.00 26 1013.2
20260507222532 69 324 1.0 1.0 0.00 0.00 0.00 24 1013.3
20260507222032 68 310 1.0 1.0 0.00 0.00 0.00 25 1013.3
20260507221531 68 281 1.0 1.0 0.00 0.00 0.00 25 1013.5
20260507221030 68 290 1.0 2.0 0.00 0.00 0.00 26 1013.5
20260507220530 68 288 1.0 1.0 0.00 0.00 0.00 26 1013.6
20260507220029 69 304 1.0 1.0 0.00 0.00 0.00 25 1013.7
20260507215529 69 294 1.0 1.0 0.00 0.00 0.00 24 1013.7
20260507215028 69 19 0.0 1.0 0.00 0.00 0.00 26 1013.8
20260507214527 68 295 1.0 1.0 0.00 0.00 0.00 26 1014.1
20260507214027 68 303 1.0 1.0 0.00 0.00 0.00 25 1014.1
20260507213526 69 308 1.0 2.0 0.00 0.00 0.00 26 1014.2
20260507213025 69 282 1.0 1.0 0.00 0.00 0.00 25 1014.2
20260507212525 69 300 1.0 1.0 0.00 0.00 0.00 25 1014.2
20260507212024 68 330 1.0 2.0 0.00 0.00 0.00 26 1014.3
20260507211524 68 320 1.0 2.0 0.00 0.00 0.00 25 1014.4
20260507211023 68 286 1.0 1.0 0.00 0.00 0.00 27 1014.4
20260507210522 68 289 1.0 2.0 0.00 0.00 0.00 26 1014.5
20260507210021 67 310 1.0 2.0 0.00 0.00 0.00 26 1014.5
20260507205521 68 289 1.0 2.0 0.00 0.00 0.00 26 1014.5
20260507205020 68 319 1.0 1.0 0.00 0.00 0.00 26 1014.5
20260507204519 68 323 1.0 2.0 0.00 0.00 0.00 26 1014.5
20260507204018 67 329 1.0 1.0 0.00 0.00 0.00 27 1014.5
20260507203518 67 287 1.0 1.0 0.00 0.00 0.00 27 1014.5
20260507203017 66 300 1.0 1.0 0.00 0.00 0.00 28 1014.6
20260507202516 66 284 1.0 3.0 0.00 0.00 0.00 28 1014.6
20260507202015 66 295 1.0 1.0 0.00 0.00 0.00 27 1014.6
20260507201515 66 302 1.0 2.0 0.00 0.00 0.00 28 1014.6
20260507201014 65 298 1.0 2.0 0.00 0.00 0.00 27 1014.8
20260507200514 65 287 1.0 1.0 0.00 0.00 0.00 28 1014.9
20260507200013 65 297 1.0 2.0 0.00 0.00 0.00 28 1015.0
20260507195512 65 301 2.0 3.0 0.00 0.00 0.00 27 1015.0
20260507195012 65 282 1.0 2.0 0.00 0.00 0.00 29 1015.1
20260507194511 64 301 2.0 4.0 0.00 0.00 0.00 27 1015.1
20260507194010 65 310 1.0 3.0 0.00 0.00 0.00 28 1015.1
20260507193510 64 287 1.0 3.0 0.00 0.00 0.00 29 1015.2
20260507193009 64 299 1.0 2.0 0.00 0.00 0.00 29 1015.2
20260507192508 64 304 1.0 1.0 0.00 0.00 0.00 29 1015.3
20260507192007 64 285 1.0 1.0 0.00 0.00 0.00 29 1015.3
20260507191507 65 292 1.0 3.0 0.00 0.00 0.00 29 1015.5
20260507191006 65 309 1.0 2.0 0.00 0.00 0.00 29 1015.6
20260507190505 64 306 1.0 1.0 0.00 0.00 0.00 30 1015.7
20260507190005 64 318 1.0 2.0 0.00 0.00 0.00 30 1015.7
20260507185504 65 301 1.0 2.0 0.00 0.00 0.00 30 1015.8
20260507185003 64 293 1.0 2.0 0.00 0.00 0.00 31 1015.8
20260507184503 64 306 1.0 1.0 0.00 0.00 0.00 31 1015.8
20260507184002 64 306 1.0 3.0 0.00 0.00 0.00 30 1015.8
20260507183501 64 320 1.0 2.0 0.00 0.00 0.00 31 1015.8
20260507183001 64 306 1.0 1.0 0.00 0.00 0.00 30 1015.8
20260507182500 64 278 1.0 1.0 0.00 0.00 0.00 31 1015.8
20260507182000 64 294 1.0 1.0 0.00 0.00 0.00 33 1015.8
20260507181459 64 275 1.0 1.0 0.00 0.00 0.00 33 1015.9
20260507180958 64 273 1.0 3.0 0.00 0.00 0.00 34 1015.9
20260507180458 64 274 1.0 1.0 0.00 0.00 0.00 34 1015.9
20260507175957 63 281 1.0 1.0 0.00 0.00 0.00 34 1016.1
20260507175456 63 263 2.0 3.0 0.00 0.00 0.00 34 1016.1
20260507174956 63 276 1.0 2.0 0.00 0.00 0.00 35 1016.1
20260507174455 63 279 1.0 1.0 0.00 0.00 0.00 34 1016.1
20260507173955 62 265 1.0 2.0 0.00 0.00 0.00 35 1016.1
20260507173454 62 263 1.0 2.0 0.00 0.00 0.00 35 1016.2
20260507172953 63 279 1.0 1.0 0.00 0.00 0.00 34 1016.2
20260507172453 62 275 1.0 1.0 0.00 0.00 0.00 34 1016.3
20260507171952 61 272 1.0 2.0 0.00 0.00 0.00 35 1016.3
20260507171451 61 248 2.0 3.0 0.00 0.00 0.00 35 1016.3
20260507170951 60 259 1.0 3.0 0.00 0.00 0.00 35 1016.4
20260507170450 60 267 1.0 2.0 0.00 0.00 0.00 39 1016.4
20260507165949 60 261 1.0 2.0 0.00 0.00 0.00 36 1016.5
20260507165449 60 266 1.0 1.0 0.00 0.00 0.00 37 1016.5
20260507164948 60 249 2.0 3.0 0.00 0.00 0.00 39 1016.5
20260507164448 60 268 1.0 2.0 0.00 0.00 0.00 37 1016.5
20260507163947 60 275 1.0 1.0 0.00 0.00 0.00 37 1016.6
20260507163446 60 265 1.0 2.0 0.00 0.00 0.00 36 1016.6
20260507162945 59 252 2.0 3.0 0.00 0.00 0.00 39 1016.6
20260507162445 59 253 2.0 3.0 0.00 0.00 0.00 39 1016.5
20260507161944 58 260 2.0 3.0 0.00 0.00 0.00 39 1016.6
20260507161443 58 268 1.0 2.0 0.00 0.00 0.00 38 1016.6
20260507160943 58 250 2.0 3.0 0.00 0.00 0.00 38 1016.6
20260507160442 57 255 2.0 3.0 0.00 0.00 0.00 38 1016.8
20260507155942 57 252 2.0 3.0 0.00 0.00 0.00 39 1016.9
20260507155441 57 254 1.0 2.0 0.00 0.00 0.00 39 1017.0
20260507154940 56 254 1.0 3.0 0.00 0.00 0.00 39 1017.0
20260507154440 56 249 2.0 3.0 0.00 0.00 0.00 39 1017.0
20260507153939 55 258 1.0 3.0 0.00 0.00 0.00 41 1017.1
20260507153438 54 253 1.0 1.0 0.00 0.00 0.00 43 1017.1
20260507152938 53 250 2.0 3.0 0.00 0.00 0.00 42 1017.0
20260507152437 53 238 2.0 2.0 0.00 0.00 0.00 42 1017.0
20260507151937 52 243 1.0 2.0 0.00 0.00 0.00 43 1017.0
20260507151436 52 241 1.0 2.0 0.00 0.00 0.00 43 1017.0
20260507150935 52 240 2.0 2.0 0.00 0.00 0.00 42 1017.1
20260507150435 51 246 1.0 2.0 0.00 0.00 0.00 44 1017.2
20260507145934 51 248 2.0 2.0 0.00 0.00 0.00 43 1017.2
20260507145827 51 242 1.0 1.0 0.00 0.00 0.00 44 1017.2
20260507145433 51 242 1.0 1.0 0.00 0.00 0.00 44 1017.2
20260507144933 50 247 1.0 2.0 0.00 0.00 0.00 44 1017.2
20260507144432 50 240 1.0 2.0 0.00 0.00 0.00 44 1017.2
20260507143932 50 210 2.0 3.0 0.00 0.00 0.00 43 1017.1
20260507143431 49 241 1.0 2.0 0.00 0.00 0.00 44 1017.2
20260507142930 49 229 1.0 2.0 0.00 0.00 0.00 44 1017.1
20260507142430 49 241 2.0 2.0 0.00 0.00 0.00 45 1017.1
20260507141929 48 237 2.0 2.0 0.00 0.00 0.00 46 1017.0
20260507141428 48 244 1.0 2.0 0.00 0.00 0.00 46 1017.1
20260507140928 48 244 1.0 2.0 0.00 0.00 0.00 45 1017.1
20260507140427 47 243 1.0 2.0 0.00 0.00 0.00 47 1017.1
20260507135926 47 246 1.0 2.0 0.00 0.00 0.00 46 1017.0
20260507135426 46 258 1.0 2.0 0.00 0.00 0.00 47 1017.1
20260507134925 46 249 1.0 2.0 0.00 0.00 0.00 48 1017.0
20260507134425 45 246 1.0 2.0 0.00 0.00 0.00 48 1017.1
20260507133924 45 245 1.0 2.0 0.00 0.00 0.00 48 1017.1
20260507133423 45 256 1.0 2.0 0.00 0.00 0.00 49 1017.0
20260507133332 44 248 1.0 2.0 0.00 0.00 0.00 49 1017.0
20260507132923 44 248 1.0 2.0 0.00 0.00 0.00 49 1017.0
20260507132827 44 246 2.0 3.0 0.00 0.00 0.00 48 1016.9
20260507132422 44 246 2.0 3.0 0.00 0.00 0.00 48 1016.9
20260507131921 44 250 2.0 2.0 0.00 0.00 0.00 48 1016.8
20260507131421 43 243 2.0 2.0 0.00 0.00 0.00 48 1016.8
20260507131330 43 245 2.0 2.0 0.00 0.00 0.00 49 1016.8
20260507130920 43 245 2.0 2.0 0.00 0.00 0.00 49 1016.8
20260507130829 42 242 2.0 2.0 0.00 0.00 0.00 49 1016.8
20260507130420 42 242 2.0 2.0 0.00 0.00 0.00 49 1016.8
20260507130324 42 241 1.0 2.0 0.00 0.00 0.00 51 1016.8
20260507125919 42 241 1.0 2.0 0.00 0.00 0.00 51 1016.8
20260507125828 42 251 1.0 2.0 0.00 0.00 0.00 51 1016.8
20260507125418 42 251 1.0 2.0 0.00 0.00 0.00 51 1016.8
20260507124918 41 240 1.0 2.0 0.00 0.00 0.00 51 1016.6
20260507124417 41 249 1.0 2.0 0.00 0.00 0.00 51 1016.6
20260507123917 41 247 1.0 2.0 0.00 0.00 0.00 52 1016.4
20260507123418 40 244 1.0 2.0 0.00 0.00 0.00 52 1016.4
20260507122915 40 246 1.0 2.0 0.00 0.00 0.00 53 1016.4
20260507122415 40 246 1.0 2.0 0.00 0.00 0.00 53 1016.3
20260507121914 40 249 1.0 2.0 0.00 0.00 0.00 52 1016.4
20260507121413 40 250 2.0 2.0 0.00 0.00 0.00 52 1016.3
20260507120913 40 247 1.0 2.0 0.00 0.00 0.00 53 1016.4
20260507120412 39 242 1.0 2.0 0.00 0.00 0.00 53 1016.4
20260507115912 39 240 1.0 2.0 0.00 0.00 0.00 54 1016.4
20260507115821 39 240 1.0 1.0 0.00 0.00 0.00 54 1016.4
20260507115411 39 240 1.0 1.0 0.00 0.00 0.00 54 1016.4
20260507114910 39 241 1.0 1.0 0.00 0.00 0.00 54 1016.4
20260507114410 39 253 1.0 1.0 0.00 0.00 0.00 56 1016.4
20260507113909 39 247 1.0 2.0 0.00 0.00 0.00 54 1016.3
20260507113409 39 252 1.0 1.0 0.00 0.00 0.00 54 1016.3
20260507113319 39 244 1.0 1.0 0.00 0.00 0.00 56 1016.2
20260507112908 39 244 1.0 1.0 0.00 0.00 0.00 56 1016.2
20260507112407 39 243 1.0 2.0 0.00 0.00 0.00 56 1016.2
20260507111907 39 250 2.0 2.0 0.00 0.00 0.00 55 1016.2
20260507111406 39 247 1.0 2.0 0.00 0.00 0.00 56 1016.2
20260507110906 39 245 1.0 2.0 0.00 0.00 0.00 55 1016.2
20260507110405 39 247 1.0 2.0 0.00 0.00 0.00 55 1016.2
20260507110315 39 247 2.0 2.0 0.00 0.00 0.00 56 1016.2
20260507105904 39 247 2.0 2.0 0.00 0.00 0.00 56 1016.2
20260507105404 39 246 2.0 2.0 0.00 0.00 0.00 55 1016.2
20260507105314 39 239 1.0 2.0 0.00 0.00 0.00 56 1016.3
20260507104903 39 239 1.0 2.0 0.00 0.00 0.00 56 1016.3
20260507104402 39 247 1.0 1.0 0.00 0.00 0.00 56 1016.3
20260507104313 39 243 1.0 1.0 0.00 0.00 0.00 56 1016.3
20260507103902 39 243 1.0 1.0 0.00 0.00 0.00 56 1016.3
20260507103812 38 246 1.0 2.0 0.00 0.00 0.00 57 1016.3
20260507103401 38 246 1.0 2.0 0.00 0.00 0.00 57 1016.3
20260507103312 38 245 1.0 1.0 0.00 0.00 0.00 58 1016.4
20260507102901 38 245 1.0 1.0 0.00 0.00 0.00 58 1016.4
20260507102400 38 245 1.0 2.0 0.00 0.00 0.00 57 1016.4
20260507101859 38 246 1.0 2.0 0.00 0.00 0.00 58 1016.5
20260507101805 38 239 1.0 2.0 0.00 0.00 0.00 58 1016.5
20260507101359 38 239 1.0 2.0 0.00 0.00 0.00 58 1016.5
20260507100858 38 246 1.0 2.0 0.00 0.00 0.00 59 1016.6
20260507100355 38 248 1.0 2.0 0.00 0.00 0.00 60 1016.6
20260507100259 38 248 1.0 1.0 0.00 0.00 0.00 61 1016.6
20260507095854 38 248 1.0 1.0 0.00 0.00 0.00 61 1016.6
20260507095803 38 251 2.0 2.0 0.00 0.00 0.00 61 1016.6
20260507095353 38 251 2.0 2.0 0.00 0.00 0.00 61 1016.6
20260507095258 38 248 1.0 2.0 0.00 0.00 0.00 60 1016.6